Theta_e
308 308 308 308 308 308 308 308 308 308 308 308 309 309 309 310 310 310 310 310 310 310 310 310 310 311 311 311 311 311 312 313 313 314 315 315 314 314 314 313 313 313 313 314 314 314 315 316 315 314 316 316 317 320 318 316 315 318 321 317 316 316 317 319 319 319 320 319 319 318 318 318 318 317 317 317 316 317 317 315 314 314 314 314 314 313 313 313
308 308 308 308 308 308 308 309 309 309 309 309 309 309 310 310 310 310 310 310 310 310 310 310 310 311 311 311 311 311 313 313 314 316 315 314 314 314 314 313 314 314 314 315 315 315 316 316 315 314 316 317 317 319 320 319 317 320 320 317 318 318 319 320 320 320 320 319 319 318 318 318 318 318 317 317 318 318 317 316 314 315 314 314 313 313 313 312
309 309 309 309 309 309 309 309 309 309 309 309 309 309 310 310 310 310 310 310 310 310 310 310 310 311 311 311 311 312 313 313 316 317 315 313 314 313 314 314 315 315 315 315 315 315 316 315 315 315 316 317 317 318 320 319 319 320 320 319 319 318 319 319 319 319 318 319 319 318 317 317 318 317 317 317 318 318 318 316 316 317 315 313 312 312 312 312
311 310 310 310 309 309 309 309 309 309 309 309 309 309 309 310 309 310 310 310 310 310 310 310 310 311 311 311 311 313 313 315 318 316 314 314 314 314 315 315 315 315 315 315 316 315 315 315 315 315 316 317 317 317 320 319 319 321 320 320 318 317 318 317 318 318 317 318 318 318 317 317 318 316 317 317 317 318 318 316 315 315 313 313 312 312 312 312
312 312 311 311 311 310 310 309 309 309 309 309 310 309 309 309 310 310 310 310 310 310 310 310 310 310 311 311 312 313 314 317 317 314 313 314 314 315 315 315 314 314 315 315 316 315 315 316 315 315 316 317 318 317 319 318 318 320 319 319 317 317 319 317 317 317 316 316 317 317 317 317 317 316 317 317 317 317 316 314 313 313 312 312 311 311 312 312
311 311 311 311 311 311 311 310 310 310 309 309 309 309 309 309 310 310 309 310 310 310 310 310 310 310 311 311 312 312 315 317 316 313 314 314 314 315 314 314 314 314 315 315 316 316 316 316 316 316 316 317 317 317 318 318 317 319 319 318 318 318 318 318 317 316 316 316 317 317 317 316 316 316 317 316 317 315 313 312 312 311 311 311 311 311 311 311
310 310 310 311 311 311 311 311 311 310 310 310 309 310 309 309 309 309 310 310 310 310 310 310 310 310 311 311 313 315 317 318 316 314 314 314 314 314 313 314 314 314 315 315 316 317 316 316 316 317 317 316 317 317 317 317 318 319 319 318 318 317 317 318 317 316 315 316 316 316 316 316 316 316 316 315 314 312 311 311 311 311 310 310 311 311 311 311
309 309 309 309 310 310 310 311 311 311 311 310 310 310 310 309 309 309 310 310 310 310 310 310 310 310 311 311 315 318 319 319 317 315 314 314 313 313 314 314 315 315 315 315 316 316 316 316 316 315 317 317 317 317 316 317 318 319 318 318 317 316 317 317 316 315 315 315 316 315 315 316 316 315 315 315 312 311 311 310 310 310 309 309 310 310 311 311
308 308 308 308 309 309 309 310 310 311 311 311 310 310 310 309 309 309 309 310 310 310 310 310 310 311 312 313 316 318 318 319 317 316 316 315 315 315 315 316 317 316 316 316 316 316 316 316 316 315 317 317 316 317 316 317 318 318 318 317 317 317 317 316 316 316 316 315 315 314 315 316 315 314 314 314 311 310 310 310 309 309 308 309 310 310 311 311
308 308 308 308 308 308 308 309 309 310 311 311 311 310 310 310 309 309 309 310 309 310 310 310 310 311 313 315 318 318 319 319 317 318 319 318 318 318 318 319 319 317 316 316 317 316 316 316 315 315 316 316 316 317 316 317 317 316 317 317 317 318 317 316 316 317 315 315 314 314 316 316 313 313 314 312 309 309 309 309 309 308 308 309 309 310 310 311
308 308 308 308 308 308 308 308 308 309 310 311 311 311 310 310 310 310 310 309 309 309 309 310 311 313 315 316 318 319 320 319 317 318 319 319 320 320 320 320 319 318 317 317 317 317 315 315 314 314 316 317 317 317 316 316 316 316 316 317 318 318 317 317 317 316 315 315 314 314 316 315 312 313 314 312 309 309 309 309 308 308 309 309 309 310 309 310
307 308 308 308 308 308 308 308 308 308 309 309 310 311 310 310 310 310 309 309 309 309 309 311 313 315 316 317 318 318 319 318 317 318 318 318 319 319 319 319 320 319 318 317 317 317 315 314 314 315 316 317 318 317 316 315 315 316 316 317 319 319 318 318 317 315 315 315 314 314 315 315 313 313 313 310 309 309 309 309 309 308 309 309 309 309 309 309
307 308 308 308 308 308 308 308 308 308 308 308 309 310 310 309 309 309 309 309 309 309 311 313 315 316 316 318 318 318 318 318 318 318 318 318 318 318 318 319 319 319 319 318 317 317 315 314 314 316 315 317 318 317 316 315 315 316 316 317 318 320 319 318 316 314 315 314 313 314 316 317 316 313 311 309 309 309 310 310 309 308 308 308 308 308 308 308
307 307 307 308 308 308 308 308 308 307 307 307 308 309 309 308 308 308 308 309 309 310 313 315 316 316 317 318 318 318 318 318 319 318 318 318 317 317 317 318 318 318 318 317 317 316 315 314 314 315 315 316 317 316 316 316 316 317 318 318 318 319 318 317 316 316 315 314 313 314 316 318 316 312 310 309 309 310 311 311 310 309 308 308 308 307 308 309
307 307 307 308 308 308 308 308 307 307 307 307 307 308 308 308 308 308 308 309 311 313 315 315 316 317 318 318 318 318 318 318 318 318 318 317 317 317 317 317 317 316 317 316 316 315 314 314 315 316 316 315 316 316 318 318 317 318 317 318 320 319 318 317 316 316 316 314 313 314 316 318 315 312 311 309 309 310 312 312 310 309 308 307 307 307 308 308
307 307 307 307 308 308 308 308 307 307 307 306 306 307 307 307 307 308 310 312 313 314 315 316 316 317 318 319 318 318 318 318 318 318 317 317 316 317 316 316 316 316 316 316 316 316 315 315 316 317 316 316 316 317 319 319 319 319 318 318 320 320 320 318 316 316 316 314 314 315 317 319 316 313 311 309 310 310 311 313 311 309 308 307 307 307 307 308
307 306 307 307 307 308 307 307 307 307 306 306 306 306 307 307 309 310 312 314 315 315 315 316 317 317 318 318 317 317 318 318 318 318 317 317 316 316 316 316 315 315 316 315 316 316 316 316 316 316 317 317 318 318 319 319 319 320 320 319 319 320 319 318 316 316 316 315 316 315 316 318 316 313 311 310 310 311 311 312 311 309 308 307 307 307 307 307
307 306 307 307 307 308 307 307 307 307 306 306 306 307 308 309 311 313 314 314 315 315 315 316 317 317 318 318 318 318 317 317 317 317 317 317 316 316 315 316 316 315 316 316 316 316 316 317 316 317 318 317 318 319 319 319 319 320 320 320 319 320 319 318 318 316 315 315 317 317 316 317 317 314 312 311 310 311 312 312 311 310 309 308 307 306 307 307
307 307 307 307 308 307 307 307 307 306 306 306 307 308 309 311 314 314 314 315 316 316 317 317 317 317 318 318 318 318 317 317 317 316 316 316 316 316 315 316 316 316 317 317 317 317 317 318 317 318 319 318 318 319 319 320 320 320 320 319 319 319 318 320 318 316 316 316 317 318 318 319 318 315 313 311 310 311 312 312 310 309 308 308 307 306 306 306
307 307 307 308 308 308 308 307 307 306 306 307 308 310 312 315 316 316 315 315 316 316 318 319 318 318 319 318 317 317 317 317 317 317 316 316 316 316 316 316 316 317 318 318 318 317 317 318 319 319 320 320 319 319 319 320 319 319 319 319 319 319 319 320 318 315 315 316 318 319 319 319 319 318 315 311 310 311 312 311 310 309 308 308 307 307 306 305
307 307 307 307 308 308 308 307 307 307 307 308 309 311 315 318 317 318 319 317 316 315 316 319 318 318 319 318 318 317 317 317 316 316 316 316 316 316 316 316 317 317 318 319 318 316 316 318 319 320 320 320 320 319 319 319 318 318 318 318 319 319 319 320 317 314 314 316 318 319 319 318 318 319 316 312 311 312 312 312 311 310 309 308 307 306 306 305
307 307 307 308 308 308 308 308 308 308 309 310 311 312 315 318 317 317 318 318 319 318 317 317 317 318 318 317 317 317 317 317 317 316 316 316 316 317 317 316 317 318 318 318 317 316 317 318 319 319 320 319 319 318 318 318 318 318 318 318 319 319 320 320 316 314 313 315 318 318 318 318 318 319 316 313 313 313 313 312 311 310 309 308 307 306 305 304
308 307 308 308 308 308 308 309 310 311 311 311 311 312 314 316 317 316 317 318 320 320 318 318 318 318 317 317 317 316 317 318 318 318 317 316 316 317 317 317 317 318 318 317 317 318 319 319 319 320 319 318 317 317 317 317 317 318 318 318 319 320 320 319 316 314 313 314 316 317 317 317 318 318 316 314 314 313 311 310 309 309 308 307 307 306 305 304
309 308 309 309 309 309 309 311 313 313 312 312 311 312 315 317 317 317 318 319 319 320 320 318 318 318 318 317 317 316 317 317 319 319 317 316 317 317 317 317 317 318 318 317 317 319 320 318 318 318 317 317 317 317 317 317 317 318 319 319 319 320 320 319 318 316 315 315 315 315 317 318 319 320 317 313 311 310 308 307 307 306 307 306 306 305 305 305
310 308 309 309 309 309 311 314 316 314 312 313 312 312 315 317 318 317 317 318 319 320 320 319 318 318 318 318 318 317 317 317 318 319 318 317 317 317 317 317 318 318 318 317 317 318 319 317 316 317 316 317 318 317 317 318 318 318 319 319 319 319 319 320 319 317 318 319 316 316 320 322 320 322 319 311 309 309 307 307 307 306 306 305 304 304 304 304
313 309 309 310 309 310 314 317 317 315 314 313 312 313 316 317 318 316 316 317 319 320 320 319 319 319 318 318 317 317 317 318 318 318 318 317 316 316 317 317 317 317 318 318 317 318 317 315 315 317 317 317 318 318 318 318 318 319 320 319 318 319 319 319 319 318 320 322 317 315 321 323 320 321 319 312 310 310 307 307 308 307 306 305 304 304 303 303
316 312 310 310 310 312 316 317 317 316 315 314 312 314 316 317 317 316 315 317 320 321 321 320 319 319 319 318 317 317 318 318 317 317 317 317 316 316 316 316 316 316 316 318 319 319 317 314 316 317 317 318 318 318 319 317 318 320 320 319 318 319 319 320 319 319 320 321 317 315 318 321 320 321 319 314 312 312 308 307 308 308 306 305 305 305 304 303
319 316 312 311 311 311 315 316 317 316 315 315 314 315 317 317 316 317 317 319 322 323 321 319 317 317 318 317 318 318 317 317 318 317 315 316 315 315 316 317 317 316 316 317 319 320 317 316 317 317 317 318 318 318 319 317 318 319 317 317 318 318 319 319 319 319 319 319 320 318 318 320 320 320 318 315 315 315 313 310 308 308 307 305 305 305 303 303
319 318 315 313 312 312 314 317 317 316 314 315 316 315 317 317 316 318 319 320 323 322 320 318 317 316 317 317 317 317 315 315 317 316 314 314 315 315 315 316 317 317 315 316 320 320 316 314 316 317 318 319 317 316 317 318 318 317 315 316 316 317 318 318 319 319 318 319 320 320 319 320 322 320 318 317 316 317 317 314 310 309 307 306 305 304 303 303
319 318 316 314 314 315 317 318 317 316 315 315 316 316 317 317 317 319 321 323 323 321 317 316 317 317 317 317 317 316 315 315 314 313 313 313 314 314 314 315 316 316 315 316 317 317 313 311 313 316 317 317 314 311 312 315 316 315 316 317 317 316 316 317 317 317 319 320 320 320 319 320 321 321 320 320 318 318 319 316 311 309 308 306 305 304 303 303
319 318 317 315 315 316 318 318 317 317 316 316 316 316 317 318 318 321 323 323 319 320 316 315 316 316 317 318 318 317 316 315 314 314 314 313 313 314 314 316 316 316 316 316 317 316 314 313 314 314 314 314 314 312 311 312 314 316 317 317 318 318 316 317 317 316 320 323 320 318 319 320 321 321 320 320 318 317 318 315 311 309 308 306 305 304 303 303
320 319 318 317 317 317 318 319 318 319 316 315 317 317 318 319 321 323 323 318 316 320 319 317 317 317 317 319 320 317 316 316 314 315 315 314 314 314 315 317 317 318 320 318 318 318 316 316 316 314 312 313 316 315 312 311 313 316 317 317 320 322 320 320 320 318 321 321 315 314 318 321 321 320 319 320 317 314 315 314 312 310 308 306 305 304 303 303
321 320 319 319 318 318 319 318 319 318 316 316 318 318 320 321 322 323 321 318 318 320 320 318 317 318 318 320 320 317 317 317 315 316 316 316 316 316 316 317 318 320 322 321 319 319 319 318 316 315 313 313 316 317 316 314 313 315 318 319 321 324 325 325 324 322 322 319 312 312 316 318 319 318 318 317 314 311 311 312 312 310 308 306 305 303 303 302
321 320 320 320 319 319 319 319 319 317 315 317 318 319 321 321 321 321 321 321 319 318 318 318 318 318 319 320 319 317 318 317 314 315 317 317 318 318 317 317 317 319 321 321 321 321 322 322 318 317 316 314 315 318 319 317 314 315 318 319 321 323 326 326 324 323 323 317 311 312 316 318 318 316 313 311 309 308 307 308 310 310 307 306 304 303 302 302
321 320 319 320 320 320 320 320 320 317 316 318 319 320 321 321 320 320 321 321 319 317 317 317 319 320 321 320 317 316 318 317 315 314 316 317 318 319 319 318 317 319 320 321 322 321 323 324 320 316 316 314 315 317 318 318 316 316 317 319 320 321 322 323 320 317 317 316 314 313 315 317 317 313 309 307 307 306 306 306 308 308 307 305 304 303 302 301
322 321 320 319 320 320 320 320 319 317 316 318 319 321 321 321 320 320 321 321 319 317 317 318 319 320 322 321 317 316 317 316 315 315 316 317 318 319 320 319 318 318 320 321 322 322 323 323 318 314 314 313 314 316 317 318 318 317 317 318 318 317 319 320 318 314 313 318 319 315 315 316 316 314 309 307 307 306 306 306 307 308 306 305 304 303 302 301
322 321 321 320 319 320 321 320 320 318 316 318 320 321 320 321 320 319 320 320 319 318 318 320 321 321 322 322 319 317 316 316 316 316 317 318 318 319 319 320 319 318 318 321 322 322 322 321 315 314 316 312 309 313 315 315 316 316 317 318 316 315 316 318 320 319 318 321 322 318 317 317 318 317 312 308 308 307 306 306 307 307 306 305 305 303 302 302
321 320 320 320 319 319 320 320 320 317 316 317 319 320 320 321 320 319 320 320 318 318 319 321 321 321 322 323 321 318 317 318 317 317 319 318 319 319 318 319 319 318 318 319 321 321 321 322 316 312 314 311 308 312 315 313 313 313 315 316 316 318 318 318 319 321 322 323 322 320 319 318 318 318 314 311 312 310 307 306 306 306 306 306 305 304 303 302
321 319 319 320 319 318 319 320 319 316 316 317 318 318 319 320 319 318 320 319 318 319 319 320 321 321 321 322 322 319 317 319 318 317 320 319 319 320 318 319 319 318 318 318 319 319 319 322 319 311 311 312 310 313 316 315 312 311 312 315 316 317 318 319 319 320 321 323 323 322 320 318 318 318 316 315 314 312 309 307 306 306 306 306 305 304 303 302
320 319 319 320 320 319 319 319 317 316 316 316 316 316 317 319 319 318 318 319 319 319 320 320 320 320 321 321 321 320 318 319 319 318 320 320 319 320 318 318 319 318 318 317 318 319 318 320 321 313 309 312 313 314 316 317 314 312 313 315 315 315 315 316 318 318 319 321 322 323 322 319 318 317 318 317 316 314 311 308 307 306 306 306 306 305 303 302
320 319 319 320 320 319 319 317 316 316 315 315 315 315 316 317 318 318 318 318 319 319 319 320 320 321 321 320 321 321 319 319 320 319 320 320 320 320 318 318 319 318 317 317 317 318 318 319 320 315 311 314 315 314 314 315 315 314 314 315 316 316 316 317 319 318 317 318 320 321 322 320 317 316 316 316 316 315 312 310 309 307 306 305 306 305 304 303
319 319 320 320 320 320 318 316 316 316 315 314 314 316 317 317 317 318 318 318 319 319 319 320 320 321 321 321 321 321 320 320 320 320 320 320 320 320 319 318 318 317 316 316 317 317 318 318 319 318 315 315 314 312 311 312 312 314 315 315 317 317 316 319 321 319 316 316 317 317 319 320 315 313 313 312 313 313 312 311 310 308 306 305 306 305 304 304
318 319 319 319 319 319 318 317 317 316 316 315 315 316 318 318 318 318 318 318 318 318 319 320 319 319 320 321 321 321 320 320 320 320 320 320 320 320 319 318 317 316 316 317 316 316 316 317 318 319 317 315 313 311 311 311 311 313 314 314 316 317 317 318 318 317 316 317 317 317 319 320 313 309 310 309 308 308 310 311 310 309 307 306 306 305 305 304
318 318 318 318 318 319 318 318 317 315 315 316 316 317 318 318 319 319 318 318 318 317 318 319 319 319 319 320 321 320 320 320 321 321 320 320 320 318 318 317 317 317 317 318 317 316 317 317 318 320 321 319 316 315 314 312 311 312 313 314 315 315 317 318 315 315 317 319 319 318 321 320 312 308 308 307 306 307 308 309 310 310 308 307 306 305 305 304
317 317 317 317 318 318 319 319 318 315 315 316 316 317 317 318 319 319 319 319 318 318 318 319 319 319 319 321 321 320 320 320 321 321 320 321 319 315 316 317 317 317 318 317 316 316 318 319 318 320 323 324 323 321 319 315 312 312 313 314 315 315 316 317 316 316 318 320 320 320 320 318 312 309 309 308 307 307 307 307 308 309 308 307 306 305 304 304
316 316 315 316 317 317 317 317 317 315 314 315 315 315 316 317 318 319 319 320 319 319 319 319 320 319 320 321 321 320 320 320 320 321 320 320 319 314 313 315 316 316 316 315 315 315 316 317 318 320 323 323 324 322 320 317 315 314 314 314 315 316 316 316 317 318 318 319 319 319 319 318 314 311 310 309 308 308 308 307 307 307 307 306 306 305 304 304
315 316 315 315 316 316 316 315 315 315 314 314 314 314 315 316 317 318 319 320 320 320 320 320 320 321 320 320 320 320 320 320 321 322 320 319 318 313 311 312 313 313 313 313 314 314 314 316 318 320 321 322 322 320 318 318 317 317 316 315 314 315 316 316 317 317 318 318 319 319 319 319 317 313 311 311 309 309 310 309 308 307 306 305 305 304 304 303
314 314 314 315 315 315 316 316 315 315 315 314 314 314 315 316 317 318 319 319 319 319 320 321 320 320 320 320 321 321 321 321 321 321 321 320 317 313 311 311 310 309 311 313 314 314 315 316 318 318 319 320 320 319 316 317 318 317 317 316 315 314 315 315 315 316 317 318 319 320 320 320 318 314 312 312 311 310 311 311 309 308 306 305 304 303 304 304
313 313 312 313 314 314 315 315 314 315 315 314 314 314 315 315 316 317 318 318 319 318 319 320 320 319 319 320 321 321 321 322 322 321 320 319 317 315 314 314 310 308 310 313 313 313 315 316 317 318 318 318 318 318 317 316 316 317 317 317 316 315 314 314 314 315 316 317 318 319 320 319 318 314 313 313 312 311 311 310 309 308 307 306 306 306 306 306
312 312 312 312 312 312 312 313 313 314 314 314 314 313 313 315 316 316 317 318 318 318 318 319 319 319 319 320 321 322 321 321 321 321 319 318 316 315 316 316 312 309 310 312 313 312 313 315 317 317 317 317 317 317 318 317 316 316 317 317 317 316 315 314 314 314 315 316 316 317 318 317 316 315 313 312 312 311 310 310 309 309 309 308 308 309 309 308
311 312 312 312 312 312 312 312 313 313 313 312 313 312 313 314 315 316 317 317 317 318 318 318 319 319 319 320 320 321 320 320 321 320 318 317 316 315 316 315 313 310 310 311 312 312 312 314 316 316 316 318 317 317 317 316 315 315 315 316 316 317 316 314 314 314 314 315 315 316 316 316 315 315 313 311 310 311 310 309 309 309 309 309 308 309 309 308
310 311 311 312 312 312 312 312 312 313 312 311 312 312 313 314 314 315 317 315 315 316 317 317 318 319 319 320 319 320 319 319 319 317 316 315 315 314 314 313 312 312 311 310 310 311 311 313 314 315 317 318 316 316 316 314 314 316 316 315 315 316 316 315 314 314 313 314 315 315 316 315 315 315 313 311 311 310 309 309 309 309 308 308 307 308 308 307
Wind_Speed
8 8 7 7 6 6 6 6 6 6 6 6 6 6 6 6 6 5 4 4 3 2 2 1 2 3 4 4 4 5 5 7 9 10 8 6 7 5 4 4 4 4 3 3 3 3 3 1 3 3 2 1 2 2 2 4 2 1 2 4 2 3 2 3 5 2 2 5 7 5 2 2 3 5 2 2 4 4 2 5 3 2 1 3 5 7 7 5
7 7 7 6 6 6 6 6 6 6 6 6 6 6 5 5 5 5 4 4 3 3 2 2 3 3 5 4 5 6 6 9 9 7 8 7 4 4 6 6 6 4 4 3 3 2 2 2 3 3 1 1 2 1 0 3 3 2 2 3 0 2 3 3 3 4 2 4 5 3 2 1 1 2 1 4 4 4 4 8 7 4 3 5 6 4 4 5
7 6 6 6 6 6 6 6 6 6 6 6 6 5 5 5 5 5 4 4 4 3 3 3 4 5 5 5 6 6 7 10 6 3 5 2 4 8 9 8 7 6 5 4 3 1 2 2 2 2 3 2 2 1 0 2 2 1 3 3 2 4 4 4 4 5 4 3 2 2 2 2 3 1 1 4 3 5 2 6 6 6 5 4 5 2 2 4
6 6 6 6 6 6 6 6 6 6 6 6 6 6 6 6 6 5 5 5 4 4 4 4 4 5 5 6 6 6 10 9 2 1 1 5 9 10 9 7 6 5 6 6 5 3 2 2 3 2 4 2 2 1 0 2 3 1 3 2 5 3 3 4 3 4 4 2 0 1 0 4 3 1 3 4 7 6 3 5 2 2 1 4 4 2 0 2
6 6 6 6 6 6 7 7 7 7 7 6 7 6 6 6 6 6 5 5 4 4 4 5 5 5 5 6 6 7 10 5 2 2 4 8 9 8 6 4 3 3 5 7 7 6 3 2 2 2 4 2 2 2 1 3 3 2 1 4 5 1 1 4 3 3 3 1 1 2 3 3 2 4 6 6 7 1 5 2 4 4 5 5 4 3 1 0
7 6 6 6 7 7 8 8 7 7 7 7 7 7 7 6 6 6 5 5 5 5 5 5 5 6 5 6 6 7 8 4 1 1 4 6 6 5 2 1 3 4 5 7 7 6 3 1 3 3 4 2 1 1 3 2 3 2 2 3 2 1 1 4 3 2 1 2 3 4 3 2 4 7 6 5 4 1 4 5 6 7 6 4 3 3 2 2
7 7 7 6 7 7 8 8 8 8 8 8 7 7 7 6 6 6 5 5 5 5 6 6 6 6 6 6 7 7 6 6 5 5 5 6 6 5 5 5 7 7 6 6 5 4 2 2 3 2 4 3 1 1 2 1 3 4 1 4 2 1 1 2 3 3 3 4 5 3 3 6 9 6 4 4 4 6 6 5 6 6 5 4 2 2 2 2
8 8 7 7 7 7 8 9 9 9 9 8 8 8 8 7 7 6 6 6 5 6 6 6 6 6 6 6 6 7 6 6 7 8 9 10 10 9 9 9 10 9 7 4 2 3 2 3 3 2 4 1 0 1 1 2 4 4 1 3 1 1 3 2 3 5 6 7 6 5 7 10 8 4 4 5 5 8 6 5 6 4 4 3 3 2 3 3
10 9 8 8 8 8 8 9 9 10 9 9 9 9 8 8 7 7 7 6 6 7 6 6 7 6 7 6 5 6 5 4 7 8 10 12 12 13 12 11 11 8 6 5 3 2 2 3 2 3 3 2 1 0 0 3 2 1 1 1 2 3 4 5 6 7 7 7 6 6 10 9 5 4 5 5 6 8 6 5 4 4 3 3 3 3 3 4
12 10 10 10 9 9 9 10 10 10 10 10 10 9 9 9 8 8 8 7 7 7 7 7 7 6 7 5 4 6 3 4 6 5 7 9 10 11 11 10 10 7 5 5 3 2 3 3 3 4 4 1 2 1 1 3 1 2 2 4 6 7 6 6 7 7 6 7 8 8 9 5 5 5 4 6 8 7 5 4 4 4 2 3 3 4 5 4
14 12 12 11 10 10 10 10 11 11 11 11 10 10 10 10 9 9 9 8 8 8 7 7 7 7 6 5 6 7 5 6 7 6 6 6 7 7 7 8 7 6 5 4 3 3 5 4 3 3 3 1 2 2 2 2 1 1 4 7 8 8 8 9 8 7 5 5 8 9 7 3 6 5 3 8 9 8 6 4 4 3 4 5 6 5 5 4
16 14 13 12 12 11 11 11 11 12 12 11 11 10 10 11 10 10 10 9 9 9 8 8 7 7 7 7 11 12 11 12 10 9 9 7 7 6 5 5 5 5 4 3 5 5 5 4 4 3 2 1 1 1 1 1 1 3 4 7 7 8 9 9 6 5 6 4 5 7 6 6 9 6 7 10 10 9 7 5 4 5 6 7 6 4 4 3
17 16 15 14 13 13 12 12 12 12 12 12 12 11 11 11 11 11 11 10 10 9 8 8 7 7 7 9 12 13 13 14 13 13 13 10 9 8 7 6 5 5 4 4 5 5 5 5 5 4 3 4 3 1 0 1 2 5 5 4 6 8 7 8 6 4 5 3 6 6 5 6 9 8 9 11 11 10 8 7 6 6 7 7 5 3 4 3
19 18 16 15 14 14 14 13 13 13 13 13 12 12 12 12 12 12 11 11 10 9 9 8 7 7 8 10 12 14 14 14 13 14 14 13 12 10 10 9 8 7 6 5 5 4 6 6 6 5 4 3 1 1 3 4 4 5 4 4 5 6 2 8 7 6 6 4 7 7 6 3 7 9 9 10 12 11 9 8 7 6 6 6 5 5 5 5
21 20 18 17 16 15 15 14 14 13 13 13 13 13 13 13 12 12 11 11 10 9 9 8 7 7 8 11 13 14 14 15 16 15 13 13 12 11 11 11 9 9 7 7 6 6 6 6 5 4 2 2 2 3 5 5 5 4 4 5 5 4 2 7 7 5 3 4 8 8 5 2 7 9 9 10 11 11 8 8 7 6 6 6 5 6 6 6
23 21 20 19 17 17 16 15 15 14 14 14 13 13 13 13 12 12 12 11 10 9 8 7 8 7 6 9 12 12 13 14 15 14 14 14 12 11 10 8 7 7 7 7 6 6 7 6 4 3 3 3 4 4 5 5 5 5 5 6 5 5 4 4 5 3 2 4 9 9 6 4 5 10 9 10 11 11 10 8 8 7 6 6 6 7 7 6
24 23 22 20 19 18 17 16 16 15 15 14 13 13 13 12 12 12 11 10 10 9 8 7 7 7 9 10 11 12 15 15 13 12 12 12 12 11 8 6 7 7 7 7 7 7 7 6 3 3 4 5 5 4 5 5 6 5 5 5 6 6 6 4 3 5 4 4 7 9 9 8 4 12 10 10 12 12 12 10 9 8 7 7 7 7 6 5
25 24 23 22 20 19 18 17 16 15 15 14 13 13 12 12 12 11 11 11 9 7 7 8 6 4 9 14 12 11 12 13 12 12 11 10 11 10 8 8 7 8 8 6 6 7 6 5 3 4 5 6 6 6 6 7 6 5 4 4 6 6 7 7 3 4 5 6 6 8 10 11 6 12 12 11 12 12 12 10 9 8 7 8 7 7 6 6
25 25 24 22 21 20 19 18 16 16 15 14 14 13 12 10 9 11 12 12 10 6 4 9 13 5 2 9 14 12 10 8 9 11 11 11 10 10 9 8 8 9 8 6 7 8 7 5 4 5 6 7 9 9 10 10 7 6 6 6 7 6 6 6 1 4 2 4 8 10 11 13 10 9 13 13 13 12 11 9 9 8 8 8 7 7 7 7
25 25 24 23 22 21 19 18 17 17 16 15 14 12 9 7 6 7 11 16 19 16 8 7 14 11 3 3 9 10 8 7 8 10 11 11 11 11 9 8 8 8 7 6 6 6 6 6 6 8 10 10 12 14 13 9 5 5 6 7 8 8 8 6 3 5 1 3 9 10 12 14 13 9 11 14 13 12 12 11 11 10 10 9 9 8 8 9
23 24 24 23 23 21 20 18 17 17 16 15 16 13 7 6 6 3 6 14 20 22 20 15 14 13 10 7 9 9 7 7 9 10 11 11 13 11 9 10 8 7 8 6 4 4 5 7 10 12 13 11 9 12 13 8 5 7 7 8 8 8 9 6 3 5 3 3 9 11 13 13 14 13 9 15 12 13 15 14 13 13 12 10 10 10 10 11
21 23 23 24 24 22 19 17 16 17 16 16 18 17 11 9 10 6 3 8 13 17 21 22 21 19 16 15 13 11 9 8 9 13 13 14 16 11 10 12 8 6 8 7 4 3 6 9 13 14 9 5 4 6 9 9 8 8 6 7 7 6 8 5 5 5 3 3 7 9 11 12 13 13 9 16 14 13 15 14 13 14 13 11 11 11 12 12
19 20 22 24 23 21 19 16 14 16 17 18 20 20 15 11 11 9 7 7 11 16 20 22 25 23 20 20 19 16 14 11 11 16 18 18 16 13 12 12 10 8 8 9 8 7 7 8 11 11 5 4 5 6 8 8 8 8 6 6 7 6 6 5 3 3 3 4 6 7 9 11 13 12 10 14 12 9 8 8 8 11 12 11 11 12 12 13
18 19 22 23 22 21 17 13 13 15 16 19 21 20 16 11 9 7 7 7 9 13 18 22 23 23 22 21 22 20 17 16 13 15 22 22 16 13 13 12 12 9 9 13 14 12 10 2 2 6 7 7 8 8 9 7 6 9 9 8 8 7 7 7 2 1 3 7 6 6 8 10 12 14 11 9 6 5 6 7 7 9 10 10 11 13 12 12
17 18 20 22 21 18 13 12 16 16 15 18 20 19 16 11 7 3 3 7 9 8 12 17 19 21 24 23 20 17 14 17 15 13 21 25 18 11 10 11 11 10 12 15 13 14 12 3 6 6 6 7 9 8 9 8 6 8 11 12 12 11 10 9 5 2 6 7 5 5 7 6 5 10 9 8 6 7 9 10 11 12 12 12 13 13 13 13
17 18 20 21 20 16 14 15 18 17 15 17 17 16 16 11 7 2 0 4 8 5 7 11 12 13 17 21 20 14 7 13 17 17 20 25 23 14 7 8 7 7 9 11 9 7 4 5 6 7 7 8 8 8 9 10 7 7 4 8 11 11 10 10 7 3 5 5 2 5 7 6 3 5 6 9 8 9 10 11 14 15 15 15 14 14 16 18
17 18 19 21 19 19 19 18 17 16 15 15 14 15 15 12 9 4 2 5 8 7 10 9 10 10 11 15 24 17 2 7 15 17 22 26 24 16 9 8 6 5 3 4 5 3 5 8 6 6 7 8 8 8 9 10 8 5 2 1 6 8 9 9 8 7 6 5 2 6 7 7 8 7 4 9 8 10 11 12 14 17 17 17 16 15 17 19
18 18 19 21 20 22 23 18 16 16 14 10 12 17 16 15 12 6 2 6 3 8 9 6 8 11 12 16 25 16 3 8 9 11 23 27 20 13 11 11 8 8 8 7 6 2 5 9 9 10 9 8 7 5 7 12 8 2 4 2 1 2 5 6 7 7 6 6 6 7 7 6 8 6 5 8 8 10 13 14 15 18 19 18 17 16 16 18
19 19 20 21 20 22 23 20 17 15 12 7 13 19 19 17 11 4 2 5 2 6 5 8 9 10 14 17 18 10 4 5 1 7 19 21 18 10 6 10 10 9 12 13 9 0 3 3 5 9 9 7 4 3 2 8 5 3 6 4 4 2 1 3 5 5 5 7 8 8 9 6 7 6 7 6 7 11 12 11 14 18 20 18 18 18 17 20
22 20 20 21 22 25 25 24 21 16 12 11 16 22 22 15 7 4 5 5 2 3 5 9 9 11 16 15 10 8 6 2 4 11 12 9 14 8 1 4 5 5 8 10 9 1 3 2 1 4 4 1 5 7 6 1 4 8 7 4 4 2 2 3 5 3 6 9 10 12 13 10 7 4 7 6 4 7 8 7 11 16 19 19 19 19 19 23
25 22 22 24 27 29 28 28 26 20 14 14 19 24 20 8 2 7 8 1 2 3 6 7 7 12 18 15 9 12 10 4 8 13 8 5 9 7 4 5 4 4 5 7 7 4 4 3 1 2 2 4 6 5 5 4 4 6 5 4 3 3 3 4 5 4 7 9 6 8 12 13 10 4 6 6 2 2 3 8 12 15 19 21 20 20 22 26
30 26 25 28 29 30 31 31 28 21 16 17 23 24 14 4 3 8 6 4 1 5 8 8 9 11 16 13 8 11 10 6 11 12 8 8 8 9 10 8 7 6 6 7 7 4 5 7 6 4 3 6 6 4 3 2 3 5 5 6 5 4 4 5 5 6 8 6 1 2 5 10 11 8 10 8 3 5 2 4 12 18 21 22 22 22 25 30
32 30 29 31 32 33 34 31 27 22 20 22 25 18 6 4 8 11 10 5 1 2 6 8 11 12 15 12 6 8 7 5 10 10 8 10 8 9 12 11 11 8 4 6 7 4 4 6 9 6 4 11 12 7 5 4 6 9 8 8 7 5 6 8 7 7 7 3 2 2 2 5 7 7 12 9 3 6 5 4 9 19 22 23 23 24 28 32
34 33 33 34 35 35 34 32 29 24 24 27 23 12 5 7 9 12 15 10 3 4 5 8 10 10 12 9 5 8 5 3 10 9 6 9 8 8 11 13 17 11 3 4 6 6 6 4 10 11 6 14 16 12 9 6 8 11 9 8 8 6 7 8 7 7 5 1 1 2 4 5 4 1 2 1 5 5 5 5 7 15 20 21 22 24 29 34
34 36 37 36 37 39 38 36 33 28 30 31 18 8 8 9 9 11 12 9 5 4 5 8 10 9 10 6 4 8 4 1 9 8 5 10 8 9 11 12 17 13 7 6 4 6 9 6 8 8 6 16 17 11 9 6 6 8 6 8 9 6 7 6 2 1 1 1 2 5 4 4 3 3 4 5 4 5 5 6 9 15 19 21 22 24 30 35
38 39 39 40 42 43 41 39 35 32 34 29 12 6 11 10 7 6 7 8 8 8 9 9 8 7 9 6 5 9 4 0 8 7 5 9 8 10 11 9 15 16 11 8 3 4 7 3 6 5 4 10 8 6 9 5 3 5 7 8 4 1 3 5 2 2 0 6 5 6 5 5 3 3 5 6 5 6 7 7 11 15 19 22 21 24 32 38
45 45 45 47 47 44 43 43 40 37 34 22 9 8 11 10 6 3 6 11 11 13 11 7 8 9 10 7 6 11 7 3 9 7 4 6 6 11 13 10 15 20 17 11 3 3 5 2 3 5 5 4 2 2 4 2 1 4 6 5 3 3 3 3 5 2 4 9 5 6 9 7 6 5 5 7 7 8 9 9 11 15 19 21 21 24 33 39
48 48 48 52 50 46 46 45 43 42 33 15 8 11 10 10 11 7 8 11 12 14 11 9 9 10 11 8 7 13 11 7 10 8 6 6 5 10 15 11 13 20 22 15 4 1 4 4 3 3 2 4 3 1 4 2 1 0 2 2 3 3 5 5 5 5 6 9 7 7 11 9 8 6 6 10 11 11 11 11 12 15 19 20 22 24 30 37
44 39 38 49 53 49 48 49 49 43 27 10 8 12 11 11 15 14 10 10 11 13 12 12 11 9 11 11 8 13 14 10 11 9 7 7 5 10 17 12 11 18 24 18 5 2 5 5 3 0 1 5 5 5 7 7 4 1 3 3 2 2 4 5 5 5 5 8 8 7 8 7 9 9 10 13 14 13 14 12 12 16 20 22 24 26 31 39
37 23 21 41 51 50 51 52 48 34 17 10 10 11 11 9 12 19 19 13 11 12 12 12 14 12 11 13 11 11 12 11 11 9 8 9 7 9 15 13 10 13 21 18 6 2 4 5 4 0 1 4 5 7 11 11 9 6 6 7 6 3 1 3 5 5 5 7 7 7 7 5 4 7 11 15 14 13 15 13 12 16 21 22 24 29 37 43
29 14 13 29 38 47 54 43 28 17 9 10 12 12 13 10 10 19 26 22 14 12 11 9 11 12 11 13 12 9 9 10 11 10 8 10 10 6 12 17 12 11 12 11 7 6 5 5 6 3 4 7 6 5 6 5 7 9 9 10 10 8 5 4 7 6 4 5 5 6 9 5 2 2 4 7 7 8 13 13 12 17 22 23 25 31 39 45
22 10 11 20 28 45 51 26 10 12 9 12 19 15 10 11 11 16 24 26 19 14 11 7 10 13 11 12 12 10 10 9 10 11 8 11 13 9 13 20 18 18 13 6 8 9 4 2 6 5 5 6 3 3 2 1 2 5 7 9 9 9 9 8 7 4 4 3 1 3 8 4 3 3 3 3 3 3 8 12 12 16 22 24 25 28 35 42
19 14 11 13 24 44 41 12 6 13 8 13 21 15 9 12 14 14 19 23 19 14 12 8 11 15 14 12 12 12 12 9 11 14 11 11 12 10 15 22 20 17 11 4 4 5 3 1 5 5 3 3 3 3 2 1 1 5 7 8 7 8 9 7 3 0 3 5 3 3 9 4 3 3 4 4 4 5 5 9 12 14 19 24 26 27 32 38
20 20 14 13 25 37 27 7 5 10 11 13 14 13 13 13 15 16 17 18 17 13 12 11 12 15 14 12 12 13 13 10 11 14 12 10 8 6 14 23 21 16 11 7 8 11 7 3 4 5 5 5 5 5 4 3 4 7 8 8 9 8 6 3 1 2 6 9 8 7 10 3 3 2 2 2 2 2 3 7 11 13 17 22 26 28 31 35
15 14 14 23 37 41 29 19 16 11 13 15 12 15 17 11 14 21 19 18 19 16 12 13 17 17 13 8 9 12 14 13 11 10 10 8 5 3 10 21 23 17 11 8 12 16 10 5 7 8 9 10 9 6 6 6 5 5 7 10 14 14 12 6 2 5 9 6 8 10 9 1 2 0 1 1 2 3 5 7 10 12 14 18 23 27 29 33
8 5 7 16 32 37 27 25 22 13 12 15 11 14 18 13 13 20 19 16 18 19 14 12 15 16 13 12 11 12 15 16 12 7 7 8 5 2 5 14 16 12 7 6 15 14 2 2 11 14 13 14 9 2 5 8 8 9 13 16 16 16 17 10 5 9 8 2 7 15 12 4 3 5 6 5 6 6 6 9 11 11 13 17 22 26 28 32
7 3 4 6 14 20 15 11 11 10 14 16 9 8 17 19 12 13 17 16 15 18 13 8 9 13 15 18 16 14 15 16 14 12 11 8 3 3 2 5 7 8 6 9 16 11 1 4 14 16 18 19 10 3 7 9 11 14 16 18 17 16 16 13 13 16 9 3 11 13 12 12 10 10 10 9 9 8 8 10 12 13 16 18 20 23 25 28
11 4 9 11 6 6 12 12 9 10 15 15 9 6 14 19 14 11 14 13 12 15 11 6 12 18 19 19 15 12 13 14 15 17 14 7 4 3 3 1 4 7 6 7 11 7 2 8 13 13 18 21 14 6 6 7 9 10 13 17 18 18 19 19 22 22 14 12 13 6 13 16 13 11 12 10 10 11 10 11 12 14 17 18 19 20 21 23
15 6 8 15 8 2 12 17 9 7 13 13 10 11 13 18 19 15 11 7 8 14 13 10 16 20 18 17 13 12 13 13 15 16 11 7 6 6 5 2 4 7 5 4 5 3 2 7 9 10 14 19 18 14 9 7 8 10 13 15 17 21 24 23 24 23 19 21 19 7 9 13 9 10 12 12 12 11 10 11 11 12 13 14 15 17 19 22
19 14 8 10 9 5 10 14 6 5 9 10 10 12 13 18 22 18 12 10 9 11 15 18 21 18 16 17 16 15 16 17 18 15 10 9 7 8 8 5 5 8 7 5 2 1 4 7 6 7 9 15 18 17 14 10 10 12 13 14 17 20 21 21 21 19 17 21 23 16 13 12 7 8 9 12 13 11 10 9 9 9 11 13 16 19 22 25
21 22 15 9 5 6 7 7 6 6 6 6 9 10 12 18 22 16 12 13 14 12 13 19 24 17 14 17 18 19 21 20 17 12 11 15 13 11 9 6 8 9 8 6 4 3 6 4 2 6 8 14 14 15 14 8 5 11 16 20 22 17 14 17 19 17 18 21 20 18 16 10 6 6 6 9 10 9 8 8 9 11 15 18 21 25 27 28
19 20 20 13 7 8 8 4 5 7 5 6 9 10 11 15 15 11 8 9 15 17 14 14 15 10 10 15 18 23 24 19 14 11 12 17 15 10 10 9 12 12 9 6 3 3 6 5 3 6 8 11 8 9 8 3 1 9 16 20 22 17 13 15 17 18 20 18 14 13 12 5 6 7 6 4 4 5 7 10 14 17 19 22 26 28 28 27
Wind_Direction
175 178 179 177 178 182 186 186 185 182 184 184 182 180 173 174 177 178 184 192 203 222 244 269 302 309 316 325 331 335 340 338 336 333 324 302 294 274 223 175 144 116 102 81 60 37 14 353 337 350 18 55 62 50 38 35 23 245 243 241 223 183 158 161 171 146 108 128 134 130 132 258 164 148 175 255 215 235 215 125 124 173 195 300 305 302 310 324
180 182 183 184 186 190 194 194 193 193 194 194 193 191 189 190 193 198 204 212 224 239 251 274 292 299 311 323 333 337 341 339 340 327 316 307 277 203 164 148 132 111 93 74 60 10 316 304 327 336 292 210 77 48 68 19 333 285 280 245 233 81 82 68 103 87 81 130 128 118 81 299 310 87 154 248 201 228 226 146 142 124 89 325 319 320 350 13
191 191 191 193 196 199 202 203 203 206 206 205 206 206 207 208 209 214 219 225 234 244 257 277 294 304 313 326 334 340 339 335 341 304 306 310 155 149 145 137 119 97 79 60 53 355 298 307 315 321 280 226 80 22 179 356 313 307 288 256 86 81 92 81 84 80 73 97 125 137 86 285 291 33 251 275 264 245 219 132 156 125 88 325 310 315 14 32
206 207 207 208 210 212 214 215 216 217 218 216 215 216 218 220 221 223 227 232 241 251 264 279 297 307 314 328 333 340 329 316 294 241 248 135 140 139 141 132 109 84 63 41 29 18 353 307 318 321 269 222 115 247 289 13 330 306 304 346 84 107 123 107 94 89 88 73 314 163 267 269 240 242 265 281 279 241 114 86 157 119 65 277 267 228 229 47
216 220 221 224 225 226 226 227 228 227 227 224 223 224 225 228 228 230 235 240 249 261 275 286 299 308 315 326 329 338 324 303 127 132 152 141 143 140 143 132 92 47 32 22 17 13 10 315 309 283 257 231 149 220 83 40 322 271 25 45 85 108 116 118 110 96 101 47 264 222 250 265 220 257 261 260 282 257 112 145 227 253 258 250 232 217 235 291
221 224 226 231 234 236 236 236 237 237 238 236 235 234 236 238 239 241 245 251 260 271 283 292 300 306 314 321 321 330 321 309 50 194 182 162 167 163 191 262 321 335 353 3 9 4 8 299 272 256 260 259 222 258 71 53 308 283 114 93 92 10 25 121 140 153 140 255 238 239 252 273 260 260 252 248 276 197 171 222 247 254 240 221 209 215 240 234
226 229 232 235 238 241 242 243 243 244 246 246 247 247 248 249 252 254 256 262 271 280 287 294 298 304 310 316 322 325 305 291 290 254 221 211 209 217 253 277 296 307 327 348 1 346 337 271 270 268 266 259 233 102 74 18 276 288 159 130 115 351 286 131 165 206 226 247 248 262 271 256 252 254 236 215 231 232 224 235 246 239 210 196 205 232 269 265
229 233 240 242 246 248 248 249 247 248 249 249 252 252 255 258 261 264 265 272 276 282 287 289 292 300 304 312 327 311 276 262 270 259 239 234 234 244 260 274 284 293 306 316 331 318 283 262 268 260 264 276 2 125 68 274 233 268 321 128 151 232 239 224 209 227 231 242 249 248 256 253 244 249 240 196 207 233 228 223 223 200 172 180 202 236 272 291
233 235 241 245 250 253 254 253 250 249 248 248 251 253 257 259 262 267 267 273 277 280 284 285 288 293 298 312 320 298 270 252 273 263 241 241 246 253 262 269 274 282 290 295 305 295 257 261 251 252 289 356 297 221 75 268 227 30 21 142 237 241 241 240 240 240 230 233 228 229 250 247 220 235 234 177 199 222 207 206 191 151 157 184 211 242 259 269
240 238 240 244 249 254 257 257 253 250 247 246 248 250 254 256 260 264 266 272 274 277 278 278 284 285 295 306 287 279 261 259 282 268 246 249 250 255 258 258 263 268 273 289 294 258 246 253 218 232 276 290 232 211 223 272 0 38 316 275 259 254 246 235 247 246 229 231 216 227 256 229 165 224 222 160 196 205 173 183 171 148 180 221 236 246 247 241
243 244 245 247 249 254 258 261 258 252 248 245 246 248 252 255 257 260 264 268 269 272 273 273 279 281 288 285 263 266 264 268 279 270 260 257 249 252 254 250 254 252 249 276 272 219 226 233 201 217 249 200 180 188 233 273 3 346 307 287 255 243 238 225 236 237 223 229 210 224 258 180 160 218 176 147 178 175 150 162 169 189 220 233 239 236 233 227
246 247 249 252 253 257 260 263 262 255 251 246 245 246 248 252 254 259 261 264 266 267 267 268 273 275 277 268 255 259 266 271 271 264 260 257 252 250 251 247 243 243 231 247 257 229 223 216 193 221 284 310 230 192 191 158 322 305 293 292 271 249 238 212 204 213 215 213 183 207 249 220 199 191 137 149 168 157 157 171 174 214 233 236 239 235 233 226
249 249 251 254 257 260 262 265 264 258 253 248 246 244 246 250 252 255 257 260 263 263 264 266 269 268 268 263 254 256 266 269 266 261 257 254 252 248 246 245 237 240 218 215 243 233 226 214 195 218 266 282 274 231 247 150 262 286 256 271 291 271 233 176 157 174 197 186 167 197 262 233 189 155 136 157 168 162 173 184 184 213 230 237 239 241 252 245
250 252 253 254 256 260 263 266 265 259 253 250 247 244 245 247 249 252 255 258 259 260 261 259 261 261 258 260 258 260 264 265 261 254 252 250 249 250 250 249 246 248 245 237 242 230 223 210 198 216 233 256 277 212 256 221 223 266 257 238 258 272 198 143 153 176 184 169 174 208 269 244 150 138 147 163 169 173 185 186 186 202 209 227 233 233 251 254
249 252 254 254 254 257 260 264 263 259 254 250 246 245 245 246 248 250 252 255 255 256 256 255 253 251 257 261 260 263 260 255 253 249 247 247 246 250 252 253 252 248 245 239 228 212 206 188 196 219 180 180 197 228 254 239 223 233 256 251 225 240 180 144 157 190 191 158 182 211 263 237 147 148 156 164 176 183 195 193 187 196 198 215 227 226 242 251
247 249 252 253 253 254 258 259 260 256 252 250 246 244 243 245 247 248 251 251 252 250 246 249 243 238 258 259 254 260 255 245 248 247 244 243 240 243 251 251 242 234 226 218 205 193 189 174 193 215 155 186 214 234 258 255 242 217 231 263 246 237 237 166 148 181 182 151 189 212 257 288 141 149 161 169 182 191 203 205 192 197 201 208 219 224 232 242
245 246 248 250 251 253 254 254 254 252 251 248 243 242 241 244 245 247 250 246 246 242 234 239 240 241 251 252 252 254 248 243 244 244 241 241 237 234 235 222 210 208 195 191 187 178 178 171 183 210 206 227 228 231 250 251 250 223 209 249 259 251 252 240 149 145 169 187 214 216 241 272 162 148 166 175 182 194 208 211 200 198 199 208 217 221 219 216
244 243 244 246 248 250 251 250 248 247 247 243 239 239 238 240 243 245 245 243 238 236 239 225 206 248 248 235 233 236 242 244 239 239 236 230 227 216 205 199 186 174 169 177 180 175 182 181 197 234 224 220 219 215 223 240 269 277 245 253 267 246 239 253 226 143 175 205 239 231 235 257 214 157 167 178 182 196 209 207 202 200 195 207 212 209 208 202
244 242 241 241 243 246 247 246 242 241 240 237 234 232 234 239 246 250 245 234 212 197 246 212 197 218 262 213 219 226 240 240 226 229 226 217 211 195 188 185 170 170 176 179 179 182 191 187 199 237 233 217 215 213 225 247 280 304 289 283 285 265 252 260 195 111 174 231 251 251 250 259 244 183 169 176 184 196 208 201 200 202 197 202 201 202 209 204
244 242 239 237 238 241 244 241 238 237 233 230 225 218 221 226 237 248 233 228 223 220 244 225 206 225 251 198 215 220 220 217 211 213 215 210 189 174 173 166 166 190 206 202 182 174 192 211 218 227 230 229 225 221 232 257 283 295 286 275 272 268 269 268 140 110 106 256 259 259 262 263 261 239 181 170 182 196 204 202 202 201 197 200 196 199 202 205
243 241 237 234 235 237 238 236 234 232 228 224 215 202 194 203 214 224 215 236 243 239 244 241 223 227 233 232 227 214 198 198 206 206 205 194 177 170 173 172 178 204 210 200 157 137 190 224 231 233 240 247 242 227 230 247 257 261 269 265 262 257 266 268 136 127 131 242 268 268 267 261 262 263 189 162 182 201 204 205 204 200 193 195 195 196 201 212
242 239 234 231 232 233 232 230 230 230 224 217 210 202 196 203 214 227 259 266 263 250 245 241 235 235 235 235 233 222 207 195 201 207 200 182 180 187 180 181 203 208 181 170 151 174 213 231 237 240 246 239 234 227 229 240 249 253 252 253 260 258 267 259 140 137 162 234 274 276 274 267 265 262 192 174 198 206 204 206 201 195 191 193 194 193 200 211
241 237 232 229 228 229 227 223 225 227 220 213 210 207 207 212 219 238 269 283 273 255 245 240 239 235 230 231 232 222 212 210 206 207 201 184 185 201 189 185 213 208 174 187 205 217 224 236 239 231 204 188 217 219 224 238 243 240 236 242 252 249 260 255 156 135 189 235 284 297 285 273 268 257 201 188 202 192 184 190 188 189 190 192 195 196 199 200
240 232 228 226 225 226 222 221 229 229 221 216 213 208 208 214 218 240 265 272 269 248 239 241 239 231 223 227 231 220 214 224 220 207 204 192 182 194 199 202 217 214 199 206 213 228 238 234 169 193 189 215 229 213 212 230 238 230 228 233 249 249 246 254 254 95 237 236 245 273 283 272 257 243 213 179 179 181 177 188 197 198 194 190 192 195 193 189
236 228 222 220 222 221 213 221 232 231 226 222 216 206 203 205 207 236 272 266 259 227 228 236 233 230 223 222 225 212 214 230 223 211 206 197 184 181 199 210 218 222 217 213 217 237 241 161 126 174 186 211 223 217 208 215 244 241 223 221 241 258 259 264 279 323 284 262 201 213 269 278 247 231 206 159 176 204 190 197 208 204 199 198 198 197 191 185
233 225 216 215 216 207 204 222 232 234 232 228 219 203 199 196 188 200 178 276 261 197 177 208 213 220 215 211 203 187 216 230 211 212 207 196 191 184 189 198 208 238 226 214 226 250 223 141 151 177 179 198 216 231 212 203 240 260 229 211 230 254 263 264 266 247 270 285 160 188 258 278 265 239 187 155 188 202 189 203 208 199 197 197 197 193 192 193
231 223 216 214 207 197 201 215 226 225 224 230 219 195 189 180 161 139 131 270 260 164 143 171 187 187 190 195 184 173 199 183 182 205 200 194 195 193 204 190 176 233 217 184 226 227 150 159 173 177 189 206 215 234 212 193 228 258 32 179 216 242 254 250 250 238 256 289 209 194 239 273 270 257 185 158 189 200 195 209 207 197 194 190 189 188 187 194
228 221 217 212 206 202 203 211 219 214 213 224 205 184 174 164 153 130 174 259 251 127 138 157 166 170 163 169 176 174 133 140 159 196 188 189 189 188 220 215 203 210 179 179 221 195 144 175 183 184 199 215 218 236 189 185 221 244 74 60 153 236 259 246 243 243 255 274 249 208 206 251 264 246 189 179 213 225 210 204 199 195 191 184 184 182 178 185
223 219 216 210 208 206 205 212 218 212 209 195 177 175 165 155 151 130 233 247 165 110 133 147 147 157 150 158 177 180 134 137 151 175 176 186 183 175 228 224 230 219 186 204 233 298 84 181 199 197 208 218 192 52 117 192 217 143 117 92 87 95 248 227 241 249 248 251 250 222 194 225 271 240 198 195 226 241 228 199 187 188 183 179 178 175 174 180
220 217 212 203 201 201 203 213 219 217 211 188 172 169 161 154 152 176 209 229 195 111 113 143 151 153 153 158 183 192 169 124 92 141 156 180 184 188 235 189 228 228 189 221 248 263 90 75 305 221 220 191 110 68 33 35 130 137 142 121 122 168 176 207 234 241 255 252 241 224 205 216 268 242 203 213 219 238 230 176 167 176 176 175 174 171 172 179
218 214 207 202 198 198 203 210 214 216 207 191 174 164 160 157 170 205 204 269 333 132 126 148 149 150 163 167 179 191 189 150 135 150 152 154 178 194 182 165 193 211 210 234 242 223 171 167 186 184 164 104 109 95 49 51 128 156 171 170 179 200 177 214 223 201 247 257 232 215 210 214 236 232 209 222 164 168 204 160 162 172 173 173 172 169 174 180
220 215 210 207 202 202 206 209 210 209 198 185 173 166 166 170 215 226 201 82 52 180 150 156 159 162 178 183 178 178 180 167 163 173 173 166 180 191 194 193 172 181 230 222 210 216 213 209 180 139 166 178 169 145 104 103 189 194 191 185 200 217 205 226 220 203 236 250 111 139 200 219 236 242 241 242 129 107 105 143 168 173 172 171 168 166 174 181
220 217 216 213 207 205 208 212 212 203 191 179 172 170 184 200 202 220 207 170 168 156 123 145 168 174 181 187 180 160 165 175 172 180 185 181 193 199 206 212 192 200 247 197 189 194 208 209 182 168 188 193 193 187 173 173 186 195 191 185 199 213 232 244 236 233 238 222 83 105 173 236 253 247 243 242 108 95 78 84 164 171 168 167 164 165 174 180
220 218 219 217 214 211 210 213 210 198 185 174 168 170 202 220 213 212 212 206 167 88 100 136 156 169 184 188 167 157 164 180 171 174 182 184 202 207 206 213 209 217 244 185 196 195 218 243 183 182 171 174 192 211 209 179 177 197 197 197 212 215 237 251 242 246 250 146 126 164 170 218 220 150 205 165 87 94 97 93 144 161 161 160 157 163 174 180
224 219 217 218 219 218 217 216 206 191 181 172 165 176 192 211 222 215 214 199 154 113 110 135 144 164 195 196 161 174 189 207 172 174 189 193 208 208 199 206 205 204 200 205 208 188 227 255 166 160 140 162 185 213 207 175 174 196 197 212 226 227 244 262 258 248 316 340 213 188 217 246 204 120 107 115 120 131 126 125 147 155 155 156 159 167 176 181
230 222 217 218 218 216 218 216 202 187 182 174 168 203 200 209 221 204 195 184 170 143 128 147 165 179 198 190 180 191 202 130 167 173 209 212 229 223 211 204 194 197 196 192 185 182 221 252 134 133 137 166 185 196 183 184 176 174 191 209 213 13 280 260 236 110 93 277 247 177 222 261 238 202 145 140 164 160 152 155 161 162 159 162 167 172 179 183
230 222 217 216 215 215 214 211 202 192 188 184 190 208 205 219 222 170 184 193 171 144 144 177 188 189 200 193 189 188 176 150 172 184 195 191 228 224 214 210 193 198 204 199 222 226 219 263 159 171 179 161 29 50 173 247 35 153 194 194 116 43 329 269 259 238 227 259 252 182 215 227 216 220 148 153 185 181 177 170 164 171 170 170 174 177 182 186
229 219 217 217 214 212 211 209 205 195 189 193 217 215 219 226 216 201 199 195 165 151 179 216 193 186 201 201 188 177 173 172 176 188 187 179 221 201 190 201 199 199 205 205 231 246 205 242 207 178 176 129 92 161 189 227 244 170 273 193 139 221 226 202 230 253 240 249 257 221 222 221 215 212 160 176 196 188 180 175 172 180 180 177 177 177 182 187
228 217 218 220 214 211 211 208 200 189 185 195 211 214 229 228 216 215 211 194 176 174 201 220 209 204 208 212 197 169 176 186 170 178 199 190 204 182 176 187 198 200 200 195 203 207 194 230 231 2 46 130 147 200 195 188 184 310 297 229 198 251 236 208 215 242 243 248 264 245 222 220 219 207 184 189 195 183 175 178 186 187 184 181 177 176 182 188
227 220 231 225 214 210 209 200 189 180 180 200 199 209 226 223 212 215 217 214 204 201 213 217 214 215 213 217 210 173 179 198 179 185 208 188 182 184 179 184 191 196 195 190 195 195 178 216 230 83 88 160 177 202 203 195 183 186 207 206 198 191 242 279 242 232 239 246 258 257 250 241 202 196 198 195 190 180 174 180 188 186 184 182 178 180 187 191
225 228 243 226 216 210 201 190 182 179 179 195 202 218 221 213 210 212 216 221 223 224 233 235 225 225 220 217 212 177 177 203 195 197 212 197 202 202 180 188 185 163 173 188 204 202 185 206 215 176 178 208 206 194 206 210 192 193 199 199 200 193 183 233 234 213 218 247 252 266 272 266 133 137 202 188 180 174 172 174 176 178 180 181 182 187 191 194
224 231 234 221 216 204 192 183 185 184 180 199 206 211 201 199 216 216 214 218 225 231 236 249 242 236 230 221 215 186 174 195 200 205 215 207 215 212 179 184 175 151 152 178 198 194 161 178 222 213 196 203 180 107 84 343 255 239 232 214 207 202 194 212 229 190 174 230 276 286 276 274 96 58 49 78 52 86 148 162 168 173 177 181 185 188 193 196
223 234 236 224 215 198 186 187 203 184 205 215 206 207 192 193 209 210 207 210 216 222 220 225 234 234 236 233 225 201 184 191 200 203 215 216 217 208 178 174 165 153 159 166 166 159 103 130 222 229 221 181 133 127 118 73 263 253 247 224 212 218 209 213 254 25 189 211 177 229 257 256 81 35 32 58 48 56 115 155 164 168 174 182 187 188 193 198
226 234 226 211 210 198 187 199 199 191 222 214 199 211 213 210 213 206 204 204 205 211 216 221 224 226 234 237 233 214 194 199 208 201 209 216 205 180 168 169 167 169 184 189 166 161 160 183 203 218 242 223 194 197 191 178 202 224 229 216 215 226 216 203 324 316 246 222 187 218 251 245 80 33 14 48 76 92 134 162 163 164 172 181 186 189 194 197
229 235 215 196 198 197 195 204 200 197 215 209 201 210 213 223 221 214 213 209 206 209 215 225 225 225 227 224 233 228 208 211 219 201 204 211 184 140 169 176 180 187 199 193 165 164 173 180 174 193 228 225 217 222 204 178 177 212 221 209 212 214 207 204 204 229 245 221 179 219 246 247 68 286 237 214 195 177 171 174 173 167 169 176 183 190 194 196
215 222 210 192 198 204 210 210 202 196 203 204 206 209 210 219 219 213 216 213 208 209 216 226 220 220 225 218 225 234 222 223 228 212 210 205 173 100 182 189 193 196 200 171 158 159 161 214 192 201 217 221 227 226 147 140 153 199 211 205 206 208 206 210 223 228 233 180 207 228 230 221 215 211 216 212 201 200 186 182 182 170 166 177 187 194 197 199
211 212 188 175 202 220 234 228 203 197 197 195 195 202 206 214 218 205 206 210 204 202 216 234 209 209 218 214 219 230 225 226 229 224 222 207 150 68 150 195 210 198 178 169 167 159 80 232 212 218 227 230 233 172 146 160 183 202 207 205 207 206 202 204 221 227 211 204 247 231 206 223 225 198 207 210 195 203 196 183 181 174 174 183 189 194 199 203
208 216 195 192 195 216 227 226 210 207 204 196 203 220 207 213 219 202 200 212 206 197 205 230 218 218 218 213 218 227 222 225 229 228 226 202 129 110 143 193 228 196 167 170 179 166 173 225 218 218 232 240 238 209 182 196 214 211 203 205 204 200 199 204 220 227 212 220 249 192 172 218 226 190 196 197 191 202 189 167 164 168 176 183 187 192 199 207
205 219 196 200 205 195 220 223 214 213 214 199 205 225 216 213 218 212 203 202 204 203 202 213 222 221 219 218 220 220 217 217 224 227 216 184 160 165 178 205 208 190 166 172 200 173 175 234 225 207 233 247 241 231 219 208 230 234 218 212 204 201 203 205 217 225 219 230 245 223 197 231 224 186 187 183 186 186 159 151 156 163 179 190 197 207 213 219
204 212 187 186 209 210 214 220 210 217 225 206 208 221 216 217 219 216 206 193 198 204 201 215 228 219 210 217 219 223 225 219 225 227 195 176 193 196 198 194 156 167 179 181 202 187 196 232 221 192 237 252 239 237 236 223 230 241 237 230 220 211 205 205 217 222 219 235 245 245 254 257 217 181 166 156 162 152 139 158 171 182 205 213 218 223 225 227
204 207 195 177 200 194 192 206 197 210 228 210 215 221 216 222 223 218 213 208 209 208 197 216 231 224 212 219 219 225 229 224 231 237 198 192 205 203 203 185 136 154 186 183 169 180 192 218 182 162 223 247 235 227 228 222 233 250 251 244 232 219 203 205 216 215 212 226 234 236 249 246 182 155 134 137 150 148 151 176 189 208 222 224 226 227 229 232
211 207 200 193 198 190 186 192 192 208 222 202 214 225 224 232 230 218 220 222 220 223 218 221 234 234 227 227 223 230 237 235 243 253 221 210 213 202 194 178 153 159 175 173 168 186 188 202 194 175 215 247 241 208 199 172 211 245 248 244 232 221 208 209 217 216 214 218 221 226 238 218 145 146 152 148 145 152 174 196 209 220 225 227 229 230 231 231